| time (UTC) | temp C | wind direction | speed KPH | gust KPH | rain 1hr cm | rain 24hr cm | rain mn cm | humidity % | barometer mb |
| 20260502163036 | 5 | 259 | 1.6 | 6.4 | 0.00 | 0.00 | 0.00 | 45 | 1016.4 |
| 20260502161526 | 5 | 304 | 0.0 | 8.0 | 0.00 | 0.00 | 0.00 | 43 | 1016.5 |
| 20260502151513 | 5 | 315 | 1.6 | 6.4 | 0.00 | 0.00 | 0.00 | 47 | 1016.8 |
| 20260502123001 | 3 | 292 | 1.6 | 8.0 | 0.00 | 0.00 | 0.00 | 51 | 1016.9 |
| 20260502121600 | 3 | 302 | 3.2 | 8.0 | 0.00 | 0.00 | 0.00 | 53 | 1016.8 |
| 20260502120119 | 2 | 302 | 3.2 | 8.0 | 0.00 | 0.00 | 0.00 | 54 | 1016.8 |
| 20260502114604 | 2 | 305 | 3.2 | 9.7 | 0.00 | 0.00 | 0.00 | 56 | 1016.8 |
| 20260502113122 | 2 | 316 | 6.4 | 12.9 | 0.00 | 0.00 | 0.00 | 58 | 1016.7 |
| 20260502111556 | 2 | 311 | 3.2 | 11.3 | 0.00 | 0.00 | 0.00 | 59 | 1016.6 |
| 20260502110054 | 2 | 330 | 6.4 | 12.9 | 0.00 | 0.00 | 0.00 | 59 | 1016.4 |
| 20260502104550 | 2 | 295 | 6.4 | 11.3 | 0.00 | 0.00 | 0.00 | 58 | 1016.4 |
| 20260502103050 | 2 | 269 | 1.6 | 11.3 | 0.00 | 0.00 | 0.00 | 59 | 1016.4 |
| 20260502101548 | 2 | 328 | 4.8 | 11.3 | 0.00 | 0.00 | 0.00 | 58 | 1016.2 |
| 20260502071529 | 3 | 311 | 4.8 | 11.3 | 0.00 | 0.00 | 0.00 | 53 | 1015.8 |
| 20260502070027 | 3 | 319 | 4.8 | 9.7 | 0.00 | 0.00 | 0.00 | 53 | 1015.9 |
| 20260502064528 | 3 | 295 | 3.2 | 6.4 | 0.00 | 0.00 | 0.00 | 54 | 1016.0 |
| 20260502063025 | 3 | 307 | 3.2 | 9.7 | 0.00 | 0.00 | 0.00 | 52 | 1016.0 |
| 20260502061524 | 3 | 319 | 4.8 | 14.5 | 0.00 | 0.00 | 0.00 | 52 | 1016.0 |
| 20260502060021 | 3 | 331 | 9.7 | 16.1 | 0.00 | 0.00 | 0.00 | 52 | 1016.0 |
| 20260502054519 | 3 | 306 | 1.6 | 6.4 | 0.00 | 0.00 | 0.00 | 52 | 1015.9 |
| 20260502053018 | 3 | 314 | 0.0 | 6.4 | 0.00 | 0.00 | 0.00 | 55 | 1015.9 |
| 20260502051524 | 3 | 271 | 1.6 | 8.0 | 0.00 | 0.00 | 0.00 | 54 | 1016.0 |
| 20260502050017 | 3 | 287 | 0.0 | 4.8 | 0.00 | 0.00 | 0.00 | 55 | 1016.0 |
| 20260502044515 | 3 | 291 | 1.6 | 6.4 | 0.00 | 0.00 | 0.00 | 55 | 1015.9 |
| 20260502043013 | 3 | 321 | 0.0 | 3.2 | 0.00 | 0.00 | 0.00 | 55 | 1015.8 |
| 20260502041512 | 3 | 317 | 1.6 | 4.8 | 0.00 | 0.00 | 0.00 | 54 | 1015.8 |
| 20260502040010 | 3 | 347 | 1.6 | 6.4 | 0.00 | 0.00 | 0.00 | 54 | 1015.8 |
| 20260502034509 | 3 | 323 | 3.2 | 6.4 | 0.00 | 0.00 | 0.00 | 54 | 1015.9 |
| 20260502033009 | 3 | 24 | 3.2 | 9.7 | 0.00 | 0.00 | 0.00 | 53 | 1015.8 |
| 20260502031508 | 3 | 352 | 4.8 | 8.0 | 0.00 | 0.00 | 0.00 | 53 | 1015.7 |
| 20260502030007 | 3 | 356 | 4.8 | 9.7 | 0.00 | 0.00 | 0.00 | 53 | 1015.7 |
| 20260502024506 | 3 | 347 | 6.4 | 11.3 | 0.00 | 0.00 | 0.00 | 53 | 1015.7 |
| 20260502023008 | 3 | 1 | 6.4 | 12.9 | 0.00 | 0.00 | 0.00 | 55 | 1015.8 |
| 20260502021506 | 3 | 18 | 9.7 | 16.1 | 0.00 | 0.00 | 0.00 | 55 | 1015.9 |
| 20260502020005 | 3 | 21 | 8.0 | 12.9 | 0.00 | 0.00 | 0.00 | 55 | 1015.8 |
| 20260502014506 | 3 | 18 | 12.9 | 19.3 | 0.00 | 0.00 | 0.00 | 56 | 1015.8 |
| 20260502013003 | 3 | 23 | 12.9 | 19.3 | 0.00 | 0.00 | 0.00 | 59 | 1015.6 |
| 20260502011501 | 3 | 11 | 17.7 | 22.5 | 0.00 | 0.00 | 0.00 | 57 | 1015.5 |
| 20260502010059 | 3 | 20 | 16.1 | 22.5 | 0.00 | 0.00 | 0.00 | 57 | 1015.4 |
| 20260502004602 | 3 | 25 | 16.1 | 22.5 | 0.00 | 0.00 | 0.00 | 56 | 1015.4 |
| 20260502003057 | 3 | 23 | 17.7 | 20.9 | 0.00 | 0.00 | 0.00 | 54 | 1015.4 |
| 20260502001558 | 3 | 25 | 12.9 | 17.7 | 0.00 | 0.00 | 0.00 | 54 | 1015.2 |
| 20260502000100 | 3 | 32 | 12.9 | 19.3 | 0.00 | 0.00 | 0.00 | 53 | 1015.0 |
| 20260501234557 | 3 | 30 | 12.9 | 17.7 | 0.00 | 0.00 | 0.00 | 54 | 1015.0 |
| 20260501233051 | 3 | 34 | 11.3 | 17.7 | 0.00 | 0.00 | 0.00 | 56 | 1014.9 |
| 20260501231555 | 3 | 27 | 16.1 | 20.9 | 0.00 | 0.00 | 0.00 | 55 | 1014.8 |
| 20260501230054 | 3 | 25 | 12.9 | 17.7 | 0.00 | 0.00 | 0.00 | 54 | 1014.8 |
| 20260501224548 | 3 | 25 | 14.5 | 20.9 | 0.00 | 0.00 | 0.00 | 55 | 1014.8 |
| 20260501223049 | 3 | 26 | 12.9 | 19.3 | 0.00 | 0.00 | 0.00 | 54 | 1014.8 |
| 20260501221554 | 3 | 30 | 14.5 | 19.3 | 0.00 | 0.00 | 0.00 | 55 | 1014.7 |
| 20260501220045 | 3 | 25 | 14.5 | 19.3 | 0.00 | 0.00 | 0.00 | 54 | 1014.6 |
| 20260501214548 | 3 | 27 | 12.9 | 19.3 | 0.00 | 0.00 | 0.00 | 56 | 1014.5 |
| 20260501213040 | 3 | 30 | 14.5 | 19.3 | 0.00 | 0.00 | 0.00 | 53 | 1014.5 |
| 20260501211539 | 3 | 23 | 11.3 | 16.1 | 0.00 | 0.00 | 0.00 | 56 | 1014.4 |
| 20260501210036 | 3 | 29 | 12.9 | 17.7 | 0.00 | 0.00 | 0.00 | 55 | 1014.4 |
| 20260501204535 | 3 | 36 | 12.9 | 19.3 | 0.00 | 0.00 | 0.00 | 56 | 1014.2 |
| 20260501203033 | 3 | 30 | 12.9 | 17.7 | 0.00 | 0.00 | 0.00 | 55 | 1014.3 |
| 20260501201533 | 3 | 31 | 9.7 | 14.5 | 0.00 | 0.00 | 0.00 | 60 | 1014.2 |
| 20260501200037 | 3 | 36 | 9.7 | 16.1 | 0.00 | 0.00 | 0.00 | 61 | 1014.1 |
| 20260501194537 | 3 | 22 | 8.0 | 12.9 | 0.00 | 0.00 | 0.00 | 56 | 1014.1 |
| 20260501193030 | 3 | 31 | 8.0 | 12.9 | 0.00 | 0.00 | 0.00 | 54 | 1014.1 |
| 20260501191531 | 3 | 20 | 8.0 | 12.9 | 0.00 | 0.00 | 0.00 | 53 | 1014.0 |
| 20260501190040 | 3 | 5 | 6.4 | 9.7 | 0.00 | 0.00 | 0.00 | 54 | 1013.9 |
| 20260501184527 | 3 | 321 | 3.2 | 9.7 | 0.00 | 0.00 | 0.00 | 54 | 1013.9 |
| 20260501183026 | 3 | 30 | 6.4 | 11.3 | 0.00 | 0.00 | 0.00 | 55 | 1013.7 |
| 20260501181528 | 3 | 31 | 8.0 | 12.9 | 0.00 | 0.00 | 0.00 | 58 | 1013.7 |
| 20260501180031 | 3 | 23 | 9.7 | 14.5 | 0.00 | 0.00 | 0.00 | 57 | 1013.7 |
| 20260501174526 | 3 | 20 | 6.4 | 11.3 | 0.00 | 0.00 | 0.00 | 56 | 1013.7 |
| 20260501173030 | 3 | 349 | 6.4 | 11.3 | 0.00 | 0.00 | 0.00 | 55 | 1013.8 |